Location: Pebble Beach Sunset Acres
(33.0837°N, 96.4508°W)
Time: 01:23:45
(UTC+00:00)

Sich 1 - Pass Details

Date: 29 June 2022
Orbit: 593 x 622 km, 82.5° (Epoch: 16 August)

Event Time Altitude Azimuth Distance (km) Brightness Sun altitude
Exits shadow 09:27:53 - 149° (SSE) 2,740 6.2 -19.4°
Reaches altitude 10° 09:30:17 10° 133° (SE) 1,956 5.6 -19.1°
Maximum altitude 09:33:18 19° 88° (E) 1,465 5.5 -18.6°
Drops below altitude 10° 09:36:20 10° 44° (NE) 1,952 6.9 -18.2°
Sets 09:39:03 0° 26° (NNE) 2,854 7.8 -17.8°
